When you browse on this site, cookies collect data to enhance your experience and personalize the content and advertising you see.
Visit our Privacy Policy to learn more. By continuing to use the site, you agree to this use of cookies and data.
  • In Hungary
  • List of Countries
  • For 7 days
  • Water Temperature
  • Weather Map
  • News
  • Weather Widgets
  • user-avatar
    Login

    Hourly Weather Pamporovo

    Today, 19 February, Wednesday

    Time Temperature Precipitation Wind Pressure Humidity
    00:00 +1°C° 0 mm 1 mps 624 mmHg 79%
    01:00 +1°C° 0 mm 1 mps 624 mmHg 81%
    02:00 +1°C° 0 mm 1 mps 624 mmHg 82%
    03:00 0°C° 0 mm 1 mps 624 mmHg 84%
    04:00 0°C° 0 mm 1 mps 624 mmHg 86%
    05:00 0°C° 0 mm 1 mps 624 mmHg 89%
    06:00 0°C° 0 mm 1 mps 624 mmHg 88%
    07:00 -1°C° 0 mm 0 mps 624 mmHg 88%
    08:00 +1°C° 0 mm 1 mps 624 mmHg 85%
    09:00 +2°C° 0 mm 1 mps 625 mmHg 80%
    10:00 +3°C° 0 mm 1 mps 625 mmHg 74%
    11:00 +5°C° 0 mm 1 mps 626 mmHg 69%
    12:00 +5°C° 0 mm 1 mps 625 mmHg 69%
    13:00 +5°C° 0 mm 1 mps 625 mmHg 69%
    14:00 +4°C° 0 mm 2 mps 624 mmHg 69%
    15:00 +4°C° 0 mm 1 mps 624 mmHg 73%
    16:00 +4°C° 0 mm 1 mps 623 mmHg 78%
    17:00 +3°C° 0 mm 1 mps 623 mmHg 82%
    18:00 +2°C° 0 mm 1 mps 622 mmHg 85%
    19:00 +1°C° 0 mm 1 mps 622 mmHg 89%
    20:00 +1°C° 0 mm 1 mps 622 mmHg 93%
    21:00 0°C° 0.1 mm 1 mps 622 mmHg 93%
    22:00 0°C° 0.1 mm 1 mps 621 mmHg 93%
    23:00 -1°C° 0.1 mm 0 mps 621 mmHg 94%

    Tomorrow, 20 February, Thursday

    Time Temperature Precipitation Wind Pressure Humidity
    00:00 -1°C° 0.1 mm 0 mps 621 mmHg 94%
    01:00 -1°C° 0.1 mm 0 mps 621 mmHg 94%
    02:00 -2°C° 0.1 mm 0 mps 620 mmHg 95%
    03:00 -2°C° 0.1 mm 0 mps 620 mmHg 95%
    04:00 -2°C° 0.1 mm 0 mps 620 mmHg 95%
    05:00 -2°C° 0.1 mm 0 mps 620 mmHg 95%
    06:00 -2°C° 0.4 mm 0 mps 620 mmHg 96%
    07:00 -1°C° 0.4 mm 1 mps 620 mmHg 96%
    08:00 -1°C° 0.4 mm 1 mps 620 mmHg 96%
    09:00 -1°C° 0.6 mm 1 mps 620 mmHg 96%
    10:00 -1°C° 0.6 mm 1 mps 621 mmHg 95%
    11:00 -1°C° 0.6 mm 1 mps 621 mmHg 95%
    12:00 0°C° 0.4 mm 1 mps 621 mmHg 94%
    13:00 -2°C° 0.4 mm 2 mps 621 mmHg 92%
    14:00 -2°C° 0.4 mm 2 mps 621 mmHg 91%
    15:00 -2°C° 0.3 mm 2 mps 621 mmHg 90%
    16:00 -3°C° 0.3 mm 2 mps 621 mmHg 89%
    17:00 -3°C° 0.3 mm 2 mps 620 mmHg 88%
    18:00 -4°C° 0.1 mm 2 mps 621 mmHg 89%
    19:00 -4°C° 0.1 mm 2 mps 621 mmHg 90%
    20:00 -5°C° 0.1 mm 2 mps 621 mmHg 91%
    21:00 -5°C° 0.1 mm 2 mps 621 mmHg 91%
    22:00 -5°C° 0.1 mm 2 mps 621 mmHg 90%
    23:00 -5°C° 0.1 mm 2 mps 621 mmHg 90%

    Day after tomorrow, 21 February, Friday

    Time Temperature Precipitation Wind Pressure Humidity
    00:00 -5°C° 0.1 mm 2 mps 621 mmHg 90%
    01:00 -6°C° 0.1 mm 2 mps 621 mmHg 89%
    02:00 -6°C° 0.1 mm 2 mps 622 mmHg 88%
    03:00 -6°C° 0.1 mm 2 mps 622 mmHg 88%
    04:00 -6°C° 0.1 mm 2 mps 622 mmHg 89%
    05:00 -6°C° 0.1 mm 2 mps 622 mmHg 89%
    06:00 -6°C° 0.2 mm 2 mps 622 mmHg 89%
    07:00 -6°C° 0.2 mm 2 mps 622 mmHg 88%
    08:00 -6°C° 0.2 mm 2 mps 623 mmHg 88%
    15:00 -1°C° 0 mm 2 mps 625 mmHg 68%
    16:00 -2°C° 0 mm 2 mps 625 mmHg 69%
    17:00 -2°C° 0 mm 2 mps 625 mmHg 70%
    18:00 -3°C° 0 mm 2 mps 625 mmHg 76%
    19:00 -3°C° 0 mm 1 mps 624 mmHg 81%
    20:00 -4°C° 0 mm 1 mps 624 mmHg 86%
    21:00 -4°C° 0 mm 1 mps 624 mmHg 86%
    22:00 -4°C° 0 mm 1 mps 624 mmHg 85%
    23:00 -4°C° 0 mm 1 mps 624 mmHg 84%

    22 February, Saturday

    Time Temperature Precipitation Wind Pressure Humidity
    00:00 -6°C° 0 mm 1 mps 624 mmHg 82%
    01:00 -6°C° 0 mm 1 mps 624 mmHg 81%
    02:00 -7°C° 0 mm 2 mps 624 mmHg 80%
    03:00 -7°C° 0 mm 2 mps 624 mmHg 79%
    04:00 -8°C° 0 mm 2 mps 624 mmHg 79%
    05:00 -8°C° 0 mm 2 mps 623 mmHg 78%
    06:00 -9°C° 0 mm 3 mps 624 mmHg 76%
    07:00 -10°C° 0 mm 4 mps 624 mmHg 74%
    08:00 -11°C° 0 mm 5 mps 624 mmHg 72%
    09:00 -10°C° 0.2 mm 5 mps 625 mmHg 71%
    10:00 -8°C° 0.2 mm 5 mps 626 mmHg 69%
    11:00 -7°C° 0.2 mm 5 mps 627 mmHg 68%
    12:00 -6°C° 0.1 mm 5 mps 627 mmHg 67%
    13:00 -6°C° 0.1 mm 5 mps 627 mmHg 66%
    14:00 -5°C° 0.1 mm 5 mps 628 mmHg 65%
    15:00 -5°C° 0.1 mm 4 mps 628 mmHg 67%
    16:00 -5°C° 0.1 mm 4 mps 628 mmHg 70%
    17:00 -6°C° 0.1 mm 3 mps 627 mmHg 73%
    18:00 -7°C° 0.1 mm 3 mps 628 mmHg 79%
    19:00 -6°C° 0.1 mm 2 mps 628 mmHg 84%
    20:00 -6°C° 0.1 mm 1 mps 628 mmHg 89%
    21:00 -7°C° 0 mm 1 mps 628 mmHg 88%
    22:00 -7°C° 0 mm 1 mps 628 mmHg 87%
    23:00 -8°C° 0 mm 1 mps 627 mmHg 86%

    23 February, Sunday

    Time Temperature Precipitation Wind Pressure Humidity
    00:00 -8°C° 0 mm 1 mps 627 mmHg 82%
    01:00 -8°C° 0 mm 1 mps 627 mmHg 78%
    02:00 -8°C° 0 mm 1 mps 627 mmHg 74%
    03:00 -7°C° 0 mm 1 mps 627 mmHg 70%
    04:00 -7°C° 0 mm 1 mps 627 mmHg 66%
    05:00 -7°C° 0 mm 1 mps 627 mmHg 62%
    06:00 -7°C° 0 mm 1 mps 627 mmHg 57%
    07:00 -6°C° 0 mm 1 mps 627 mmHg 52%
    08:00 -4°C° 0 mm 1 mps 628 mmHg 47%
    09:00 -2°C° 0 mm 1 mps 629 mmHg 44%
    10:00 +1°C° 0 mm 1 mps 630 mmHg 40%
    11:00 +3°C° 0 mm 1 mps 630 mmHg 36%
    12:00 +4°C° 0 mm 1 mps 630 mmHg 37%
    13:00 +4°C° 0 mm 2 mps 630 mmHg 38%
    14:00 +5°C° 0 mm 2 mps 630 mmHg 40%
    15:00 +4°C° 0 mm 2 mps 629 mmHg 46%
    16:00 +4°C° 0 mm 1 mps 628 mmHg 53%
    17:00 +4°C° 0 mm 1 mps 628 mmHg 60%
    18:00 +2°C° 0 mm 1 mps 627 mmHg 61%
    19:00 +1°C° 0 mm 1 mps 627 mmHg 62%
    20:00 -2°C° 0 mm 2 mps 626 mmHg 63%
    21:00 -2°C° 0 mm 2 mps 626 mmHg 61%
    22:00 -2°C° 0 mm 2 mps 626 mmHg 58%
    23:00 -2°C° 0 mm 2 mps 626 mmHg 55%

    24 February, Monday

    Time Temperature Precipitation Wind Pressure Humidity
    00:00 -1°C° 0 mm 2 mps 626 mmHg 54%
    01:00 -1°C° 0 mm 2 mps 625 mmHg 52%
    02:00 -1°C° 0 mm 2 mps 625 mmHg 50%
    03:00 -1°C° 0 mm 2 mps 624 mmHg 51%
    04:00 -1°C° 0 mm 2 mps 624 mmHg 52%
    05:00 -1°C° 0 mm 2 mps 623 mmHg 53%
    06:00 -1°C° 0 mm 2 mps 623 mmHg 52%
    07:00 -1°C° 0 mm 2 mps 623 mmHg 51%
    08:00 +1°C° 0 mm 2 mps 622 mmHg 51%
    09:00 +3°C° 0 mm 2 mps 623 mmHg 48%
    10:00 +7°C° 0 mm 1 mps 624 mmHg 45%
    11:00 +9°C° 0 mm 1 mps 625 mmHg 42%
    12:00 +8°C° 0 mm 3 mps 625 mmHg 43%
    13:00 +7°C° 0 mm 4 mps 625 mmHg 44%
    14:00 +6°C° 0 mm 5 mps 625 mmHg 44%
    15:00 +5°C° 0 mm 5 mps 625 mmHg 50%
    16:00 +3°C° 0 mm 5 mps 625 mmHg 55%
    17:00 +1°C° 0 mm 5 mps 625 mmHg 60%
    18:00 -1°C° 0 mm 4 mps 625 mmHg 61%
    19:00 -3°C° 0 mm 4 mps 625 mmHg 63%
    20:00 -5°C° 0 mm 4 mps 625 mmHg 64%
    21:00 -6°C° 0 mm 3 mps 625 mmHg 63%
    22:00 -7°C° 0 mm 3 mps 626 mmHg 63%
    23:00 -7°C° 0 mm 3 mps 626 mmHg 62%
    Show more